Time,TemperatureF,DewpointF,PressureIn,WindDirection,WindDirectionDegrees,WindSpeedMPH,WindSpeedGustMPH,Humidity,HourlyPrecipIn,Conditions,Clouds,dailyrainin,SoftwareType,DateUTC
2013-10-20 00:00:00,75.6,74.4,29.82,NW,320,0.0,0.0,96,0.00,,---,0.00,VWS V14.01,2013-10-20 04:00:00,
2013-10-20 00:01:00,75.6,74.4,29.82,NW,320,0.0,0.0,96,0.00,,---,0.00,VWS V14.01,2013-10-20 04:01:00,
2013-10-20 00:02:00,75.4,74.2,29.82,NW,320,0.0,0.0,96,0.00,,---,0.00,VWS V14.01,2013-10-20 04:02:00,
2013-10-20 00:07:00,75.4,74.2,29.82,NW,320,0.0,0.0,96,0.00,,---,0.00,VWS V14.01,2013-10-20 04:07:00,
2013-10-20 00:10:00,77.0,75.8,29.82,NW,320,0.0,0.0,96,0.00,,---,0.03,VWS V14.01,2013-10-20 04:10:00,
2013-10-20 00:12:00,75.4,74.2,29.82,NW,320,0.0,0.0,96,0.00,,---,0.00,VWS V14.01,2013-10-20 04:12:00,
2013-10-20 00:17:00,75.3,74.1,29.82,NW,320,0.0,0.0,96,0.00,,---,0.00,VWS V14.01,2013-10-20 04:17:00,
2013-10-20 00:20:00,76.7,75.5,29.82,NW,320,0.0,0.0,96,0.00,,---,0.03,VWS V14.01,2013-10-20 04:20:00,
2013-10-20 00:22:00,75.1,73.9,29.82,NW,320,0.0,0.0,96,0.00,,---,0.00,VWS V14.01,2013-10-20 04:22:00,
2013-10-20 00:27:00,75.1,73.9,29.82,NW,320,0.0,0.0,96,0.00,,---,0.00,VWS V14.01,2013-10-20 04:27:00,
2013-10-20 00:30:00,76.5,75.3,29.82,NW,320,0.0,0.0,96,0.00,,---,0.03,VWS V14.01,2013-10-20 04:30:00,
2013-10-20 00:32:00,75.1,73.9,29.81,NW,320,0.0,0.0,96,0.00,,---,0.00,VWS V14.01,2013-10-20 04:32:00,
2013-10-20 00:37:00,74.9,73.7,29.81,NW,320,0.0,0.0,96,0.00,,---,0.00,VWS V14.01,2013-10-20 04:37:00,
2013-10-20 00:40:00,76.1,74.9,29.82,NW,320,0.0,0.0,96,0.00,,---,0.03,VWS V14.01,2013-10-20 04:40:00,
2013-10-20 00:42:00,74.7,73.5,29.81,NW,320,0.0,0.0,96,0.00,,---,0.00,VWS V14.01,2013-10-20 04:42:00,
2013-10-20 00:47:00,74.7,73.5,29.81,NW,320,0.0,0.0,96,0.00,,---,0.00,VWS V14.01,2013-10-20 04:47:00,
2013-10-20 00:50:00,75.8,74.6,29.82,NW,320,0.0,0.0,96,0.00,,---,0.03,VWS V14.01,2013-10-20 04:50:00,
2013-10-20 00:52:00,74.7,73.5,29.81,NW,320,0.0,0.0,96,0.00,,---,0.00,VWS V14.01,2013-10-20 04:52:00,
2013-10-20 00:57:00,74.7,73.5,29.81,NW,320,0.0,0.0,96,0.00,,---,0.00,VWS V14.01,2013-10-20 04:57:00,
2013-10-20 01:00:00,75.6,74.4,29.82,NW,320,0.0,0.0,96,0.00,,---,0.03,VWS V14.01,2013-10-20 05:00:00,
2013-10-20 01:02:00,74.7,73.5,29.81,NW,320,0.0,0.0,96,0.00,,---,0.00,VWS V14.01,2013-10-20 05:02:00,
2013-10-20 01:07:00,74.7,73.5,29.81,NW,320,0.0,0.0,96,0.00,,---,0.00,VWS V14.01,2013-10-20 05:07:00,
2013-10-20 01:10:00,75.3,74.1,29.82,NW,320,0.0,0.0,96,0.00,,---,0.00,VWS V14.01,2013-10-20 05:10:00,
2013-10-20 01:12:00,74.7,73.5,29.81,NNW,336,0.0,0.0,96,0.00,,---,0.00,VWS V14.01,2013-10-20 05:12:00,
2013-10-20 01:17:00,74.9,73.7,29.80,NW,320,0.0,0.0,96,0.00,,---,0.00,VWS V14.01,2013-10-20 05:17:00,
2013-10-20 01:20:00,75.3,74.1,29.82,NW,320,0.0,0.0,96,0.00,,---,0.00,VWS V14.01,2013-10-20 05:20:00,
2013-10-20 01:22:00,74.7,73.5,29.80,NW,320,0.0,0.0,96,0.00,,---,0.00,VWS V14.01,2013-10-20 05:22:00,
2013-10-20 01:27:00,74.7,73.5,29.80,NNW,333,0.0,0.0,96,0.00,,---,0.00,VWS V14.01,2013-10-20 05:27:00,
2013-10-20 01:30:00,75.1,73.9,29.81,NW,320,0.0,0.0,96,0.00,,---,0.00,VWS V14.01,2013-10-20 05:30:00,
2013-10-20 01:32:00,74.9,73.7,29.80,NW,320,0.0,0.0,96,0.00,,---,0.00,VWS V14.01,2013-10-20 05:32:00,
2013-10-20 01:37:00,74.9,73.7,29.80,NW,320,0.0,0.0,96,0.00,,---,0.00,VWS V14.01,2013-10-20 05:37:00,
2013-10-20 01:40:00,74.9,73.7,29.81,NW,320,0.0,0.0,96,0.00,,---,0.00,VWS V14.01,2013-10-20 05:40:00,
2013-10-20 01:42:00,74.9,73.7,29.80,NW,320,0.0,0.0,96,0.00,,---,0.00,VWS V14.01,2013-10-20 05:42:00,
2013-10-20 01:47:00,74.9,73.7,29.80,NW,320,0.0,0.0,96,0.00,,---,0.00,VWS V14.01,2013-10-20 05:47:00,
2013-10-20 01:50:00,74.7,73.5,29.81,NW,320,0.0,0.0,96,0.00,,---,0.00,VWS V14.01,2013-10-20 05:50:00,
2013-10-20 01:52:00,75.1,73.9,29.80,NW,320,0.0,0.0,96,0.00,,---,0.00,VWS V14.01,2013-10-20 05:52:00,
2013-10-20 01:57:00,74.9,73.7,29.80,NW,320,0.0,0.0,96,0.00,,---,0.00,VWS V14.01,2013-10-20 05:57:00,
2013-10-20 02:00:00,74.7,73.5,29.81,NW,320,0.0,0.0,96,0.00,,---,0.00,VWS V14.01,2013-10-20 06:00:00,
2013-10-20 02:02:00,74.9,73.7,29.80,NW,320,0.0,0.0,96,0.00,,---,0.00,VWS V14.01,2013-10-20 06:02:00,
2013-10-20 02:07:00,74.9,73.7,29.80,NW,320,0.0,0.0,96,0.00,,---,0.00,VWS V14.01,2013-10-20 06:07:00,
2013-10-20 02:10:00,74.7,73.5,29.81,NW,322,0.0,0.0,96,0.00,,---,0.00,VWS V14.01,2013-10-20 06:10:00,
2013-10-20 02:12:00,74.9,73.7,29.80,NW,320,0.0,0.0,96,0.00,,---,0.00,VWS V14.01,2013-10-20 06:12:00,
2013-10-20 02:17:00,74.9,73.7,29.80,NW,320,0.0,0.0,96,0.00,,---,0.00,VWS V14.01,2013-10-20 06:17:00,
2013-10-20 02:20:00,74.9,73.7,29.80,NW,320,0.0,0.0,96,0.00,,---,0.00,VWS V14.01,2013-10-20 06:20:00,
2013-10-20 02:22:00,75.1,73.9,29.80,NW,320,0.0,0.0,96,0.00,,---,0.00,VWS V14.01,2013-10-20 06:22:00,
2013-10-20 02:27:00,75.1,73.9,29.80,NW,320,0.0,0.0,96,0.00,,---,0.00,VWS V14.01,2013-10-20 06:27:00,
2013-10-20 02:30:00,74.7,73.5,29.80,NW,320,0.0,0.0,96,0.00,,---,0.00,VWS V14.01,2013-10-20 06:30:00,
2013-10-20 02:32:00,75.3,74.1,29.80,NW,322,0.0,0.0,96,0.00,,---,0.00,VWS V14.01,2013-10-20 06:32:00,
2013-10-20 02:37:00,75.3,74.1,29.80,NW,322,0.0,0.0,96,0.00,,---,0.00,VWS V14.01,2013-10-20 06:37:00,
2013-10-20 02:40:00,74.9,73.7,29.80,NW,320,0.0,0.0,96,0.00,,---,0.00,VWS V14.01,2013-10-20 06:40:00,
2013-10-20 02:42:00,75.3,74.1,29.80,NW,322,0.0,0.0,96,0.00,,---,0.00,VWS V14.01,2013-10-20 06:42:00,
2013-10-20 02:47:00,75.4,74.2,29.80,NW,322,0.0,0.0,96,0.00,,---,0.00,VWS V14.01,2013-10-20 06:47:00,
2013-10-20 02:50:00,74.9,73.7,29.80,NW,320,0.0,0.0,96,0.00,,---,0.00,VWS V14.01,2013-10-20 06:50:00,
2013-10-20 02:52:00,75.4,74.2,29.80,NW,322,0.0,0.0,96,0.00,,---,0.00,VWS V14.01,2013-10-20 06:52:00,
2013-10-20 02:57:00,75.4,74.2,29.80,NW,322,0.0,0.0,96,0.00,,---,0.00,VWS V14.01,2013-10-20 06:57:00,
2013-10-20 03:00:00,74.9,73.7,29.80,NW,320,0.0,0.0,96,0.00,,---,0.00,VWS V14.01,2013-10-20 07:00:00,
2013-10-20 03:02:00,75.3,74.1,29.79,NW,322,0.0,0.0,96,0.00,,---,0.00,VWS V14.01,2013-10-20 07:02:00,
2013-10-20 03:07:00,75.1,73.9,29.79,NW,322,0.0,0.0,96,0.00,,---,0.00,VWS V14.01,2013-10-20 07:07:00,
2013-10-20 03:10:00,74.9,73.7,29.80,NW,320,0.0,0.0,96,0.00,,---,0.00,VWS V14.01,2013-10-20 07:10:00,
2013-10-20 03:12:00,74.9,73.7,29.79,NW,322,0.0,0.0,96,0.00,,---,0.00,VWS V14.01,2013-10-20 07:12:00,
2013-10-20 03:17:00,74.7,73.5,29.79,NW,322,0.0,0.0,96,0.00,,---,0.00,VWS V14.01,2013-10-20 07:17:00,
2013-10-20 03:20:00,75.1,73.9,29.80,NW,320,0.0,0.0,96,0.00,,---,0.00,VWS V14.01,2013-10-20 07:20:00,
2013-10-20 03:22:00,74.7,73.5,29.79,NW,322,0.0,0.0,96,0.00,,---,0.00,VWS V14.01,2013-10-20 07:22:00,
2013-10-20 03:27:00,74.6,73.4,29.79,NW,322,0.0,0.0,96,0.00,,---,0.00,VWS V14.01,2013-10-20 07:27:00,
2013-10-20 03:30:00,75.1,73.9,29.80,NW,320,0.0,0.0,96,0.00,,---,0.00,VWS V14.01,2013-10-20 07:30:00,
2013-10-20 03:32:00,74.6,73.4,29.78,NW,322,0.0,0.0,96,0.00,,---,0.00,VWS V14.01,2013-10-20 07:32:00,
2013-10-20 03:37:00,74.4,73.2,29.78,NW,322,0.0,0.0,96,0.00,,---,0.00,VWS V14.01,2013-10-20 07:37:00,
2013-10-20 03:40:00,75.3,74.1,29.80,NW,323,0.0,0.0,96,0.00,,---,0.00,VWS V14.01,2013-10-20 07:40:00,
2013-10-20 03:42:00,74.4,73.2,29.78,NW,322,0.0,0.0,96,0.00,,---,0.00,VWS V14.01,2013-10-20 07:42:00,
2013-10-20 03:47:00,74.4,73.2,29.79,NW,322,0.0,0.0,96,0.00,,---,0.00,VWS V14.01,2013-10-20 07:47:00,
2013-10-20 03:50:00,75.4,74.2,29.80,NW,322,0.0,0.0,96,0.00,,---,0.00,VWS V14.01,2013-10-20 07:50:00,
2013-10-20 03:52:00,74.4,73.2,29.79,NW,322,0.0,0.0,96,0.00,,---,0.00,VWS V14.01,2013-10-20 07:52:00,
2013-10-20 03:56:00,74.4,73.2,29.79,NW,322,0.0,0.0,96,0.00,,---,0.00,VWS V14.01,2013-10-20 07:56:00,
2013-10-20 04:00:00,75.3,74.1,29.79,NW,322,0.0,0.0,96,0.00,,---,0.00,VWS V14.01,2013-10-20 08:00:00,
2013-10-20 04:01:00,74.4,73.2,29.79,NW,322,0.0,0.0,96,0.00,,---,0.00,VWS V14.01,2013-10-20 08:01:00,
2013-10-20 04:06:00,74.4,73.2,29.79,NW,322,0.0,0.0,96,0.00,,---,0.00,VWS V14.01,2013-10-20 08:06:00,
2013-10-20 04:10:00,74.9,73.7,29.79,NW,322,0.0,0.0,96,0.00,,---,0.00,VWS V14.01,2013-10-20 08:10:00,
2013-10-20 04:11:00,74.4,73.2,29.79,NW,322,0.0,0.0,96,0.00,,---,0.00,VWS V14.01,2013-10-20 08:11:00,
2013-10-20 04:16:00,74.4,73.2,29.78,NW,322,0.0,0.0,96,0.00,,---,0.00,VWS V14.01,2013-10-20 08:16:00,
2013-10-20 04:20:00,74.7,73.5,29.79,NW,322,0.0,0.0,96,0.00,,---,0.00,VWS V14.01,2013-10-20 08:20:00,
2013-10-20 04:21:00,74.4,73.2,29.78,NW,322,0.0,0.0,96,0.00,,---,0.00,VWS V14.01,2013-10-20 08:21:00,
2013-10-20 04:26:00,74.4,73.2,29.78,NW,322,0.0,0.0,96,0.00,,---,0.00,VWS V14.01,2013-10-20 08:26:00,
2013-10-20 04:30:00,74.6,73.4,29.78,NW,323,0.0,0.0,96,0.00,,---,0.00,VWS V14.01,2013-10-20 08:30:00,
2013-10-20 04:31:00,74.4,73.2,29.78,NW,322,0.0,0.0,96,0.00,,---,0.00,VWS V14.01,2013-10-20 08:31:00,
2013-10-20 04:36:00,74.4,73.2,29.78,NW,322,0.0,0.0,96,0.00,,---,0.00,VWS V14.01,2013-10-20 08:36:00,
2013-10-20 04:40:00,74.4,73.2,29.78,NW,322,0.0,0.0,96,0.00,,---,0.00,VWS V14.01,2013-10-20 08:40:00,
2013-10-20 04:41:00,74.4,73.2,29.78,NW,322,0.0,0.0,96,0.00,,---,0.00,VWS V14.01,2013-10-20 08:41:00,
2013-10-20 04:46:00,74.6,73.4,29.78,NW,322,0.0,0.0,96,0.00,,---,0.00,VWS V14.01,2013-10-20 08:46:00,
2013-10-20 04:50:00,74.4,73.2,29.79,NW,322,0.0,0.0,96,0.00,,---,0.00,VWS V14.01,2013-10-20 08:50:00,
2013-10-20 04:51:00,74.6,73.4,29.78,NW,322,0.0,0.0,96,0.00,,---,0.00,VWS V14.01,2013-10-20 08:51:00,
2013-10-20 04:56:00,74.6,73.4,29.78,NW,322,0.0,0.0,96,0.00,,---,0.00,VWS V14.01,2013-10-20 08:56:00,
2013-10-20 05:00:00,74.4,73.2,29.79,NW,322,0.0,0.0,96,0.00,,---,0.00,VWS V14.01,2013-10-20 09:00:00,
2013-10-20 05:02:00,74.6,73.4,29.78,NW,322,0.0,0.0,96,0.00,,---,0.00,VWS V14.01,2013-10-20 09:02:00,
2013-10-20 05:07:00,74.6,73.4,29.78,NW,322,0.0,0.0,96,0.00,,---,0.00,VWS V14.01,2013-10-20 09:07:00,
2013-10-20 05:10:00,74.4,73.2,29.79,NW,322,0.0,0.0,96,0.00,,---,0.00,VWS V14.01,2013-10-20 09:10:00,
2013-10-20 05:12:00,74.6,73.4,29.78,NW,322,0.0,0.0,96,0.00,,---,0.00,VWS V14.01,2013-10-20 09:12:00,
2013-10-20 05:17:00,74.4,73.2,29.78,NW,322,0.0,0.0,96,0.00,,---,0.00,VWS V14.01,2013-10-20 09:17:00,
2013-10-20 05:20:00,74.4,73.2,29.78,NW,322,0.0,0.0,96,0.00,,---,0.00,VWS V14.01,2013-10-20 09:20:00,
2013-10-20 05:22:00,74.2,73.0,29.78,NW,322,0.0,0.0,96,0.00,,---,0.00,VWS V14.01,2013-10-20 09:22:00,
2013-10-20 05:27:00,74.2,73.0,29.78,NW,322,0.0,0.0,96,0.00,,---,0.00,VWS V14.01,2013-10-20 09:27:00,
2013-10-20 05:30:00,74.4,73.2,29.78,NW,322,0.0,0.0,96,0.00,,---,0.00,VWS V14.01,2013-10-20 09:30:00,
2013-10-20 05:32:00,74.2,73.0,29.78,NW,322,0.0,0.0,96,0.00,,---,0.00,VWS V14.01,2013-10-20 09:32:00,
2013-10-20 05:37:00,74.0,72.8,29.78,NW,322,0.0,0.0,96,0.00,,---,0.00,VWS V14.01,2013-10-20 09:37:00,
2013-10-20 05:40:00,74.4,73.2,29.78,NW,322,0.0,0.0,96,0.00,,---,0.00,VWS V14.01,2013-10-20 09:40:00,
2013-10-20 05:42:00,74.0,72.8,29.78,NW,322,0.0,0.0,96,0.00,,---,0.00,VWS V14.01,2013-10-20 09:42:00,
2013-10-20 05:47:00,73.9,72.7,29.79,NW,322,0.0,0.0,96,0.00,,---,0.00,VWS V14.01,2013-10-20 09:47:00,
2013-10-20 05:50:00,74.6,73.4,29.78,NW,322,0.0,0.0,96,0.00,,---,0.00,VWS V14.01,2013-10-20 09:50:00,
2013-10-20 05:52:00,73.9,72.7,29.79,NW,322,0.0,0.0,96,0.00,,---,0.00,VWS V14.01,2013-10-20 09:52:00,
2013-10-20 05:57:00,73.9,72.7,29.79,NW,322,0.0,0.0,96,0.00,,---,0.00,VWS V14.01,2013-10-20 09:57:00,
2013-10-20 06:00:00,74.6,73.4,29.78,NW,322,0.0,0.0,96,0.00,,---,0.00,VWS V14.01,2013-10-20 10:00:00,
2013-10-20 06:02:00,73.7,72.5,29.80,NW,322,0.0,0.0,96,0.00,,---,0.00,VWS V14.01,2013-10-20 10:02:00,
2013-10-20 06:07:00,73.7,72.5,29.80,NW,323,0.0,0.0,96,0.00,,---,0.00,VWS V14.01,2013-10-20 10:07:00,
2013-10-20 06:10:00,74.6,73.4,29.78,NW,322,0.0,0.0,96,0.00,,---,0.00,VWS V14.01,2013-10-20 10:10:00,
2013-10-20 06:12:00,73.5,72.3,29.80,NW,322,0.0,0.0,96,0.00,,---,0.00,VWS V14.01,2013-10-20 10:12:00,
2013-10-20 06:17:00,73.7,72.5,29.80,NW,322,0.0,0.0,96,0.00,,---,0.00,VWS V14.01,2013-10-20 10:17:00,
2013-10-20 06:20:00,74.4,73.2,29.78,NW,322,0.0,0.0,96,0.00,,---,0.00,VWS V14.01,2013-10-20 10:20:00,
2013-10-20 06:22:00,73.7,72.5,29.80,NW,322,0.0,0.0,96,0.00,,---,0.00,VWS V14.01,2013-10-20 10:22:00,
2013-10-20 06:27:00,73.7,72.5,29.80,NW,322,0.0,0.0,96,0.00,,---,0.00,VWS V14.01,2013-10-20 10:27:00,
2013-10-20 06:30:00,74.2,73.0,29.78,NW,322,0.0,0.0,96,0.00,,---,0.00,VWS V14.01,2013-10-20 10:30:00,
2013-10-20 06:32:00,73.9,72.7,29.81,NW,322,0.0,0.0,96,0.00,,---,0.00,VWS V14.01,2013-10-20 10:32:00,
2013-10-20 06:37:00,74.0,72.8,29.81,NW,322,0.0,0.0,96,0.00,,---,0.00,VWS V14.01,2013-10-20 10:37:00,
2013-10-20 06:40:00,74.0,72.8,29.78,NW,322,0.0,0.0,96,0.00,,---,0.00,VWS V14.01,2013-10-20 10:40:00,
2013-10-20 06:42:00,74.0,72.8,29.81,NW,322,0.0,0.0,96,0.00,,---,0.00,VWS V14.01,2013-10-20 10:42:00,
2013-10-20 06:47:00,74.0,72.8,29.81,NW,322,0.0,0.0,96,0.00,,---,0.00,VWS V14.01,2013-10-20 10:47:00,
2013-10-20 06:50:00,73.9,72.7,29.79,NW,322,0.0,0.0,96,0.00,,---,0.00,VWS V14.01,2013-10-20 10:50:00,
2013-10-20 06:52:00,74.0,72.8,29.81,NW,322,0.0,0.0,96,0.00,,---,0.00,VWS V14.01,2013-10-20 10:52:00,
2013-10-20 06:57:00,74.0,72.8,29.81,NW,322,0.0,0.0,96,0.00,,---,0.00,VWS V14.01,2013-10-20 10:57:00,
2013-10-20 07:00:00,73.7,72.5,29.80,NW,322,0.0,0.0,96,0.00,,---,0.00,VWS V14.01,2013-10-20 11:00:00,
2013-10-20 07:02:00,74.0,72.8,29.81,NW,322,0.0,0.0,96,0.00,,---,0.00,VWS V14.01,2013-10-20 11:02:00,
2013-10-20 07:07:00,74.0,72.8,29.81,NW,322,0.0,0.0,96,0.00,,---,0.00,VWS V14.01,2013-10-20 11:07:00,
2013-10-20 07:10:00,73.5,72.3,29.80,NW,323,0.0,0.0,96,0.00,,---,0.00,VWS V14.01,2013-10-20 11:10:00,
2013-10-20 07:12:00,74.0,72.8,29.81,NW,322,0.0,0.0,96,0.00,,---,0.00,VWS V14.01,2013-10-20 11:12:00,
2013-10-20 07:17:00,74.0,72.8,29.81,NW,322,0.0,0.0,96,0.00,,---,0.00,VWS V14.01,2013-10-20 11:17:00,
2013-10-20 07:20:00,73.7,72.5,29.80,NW,322,0.0,0.0,96,0.00,,---,0.00,VWS V14.01,2013-10-20 11:20:00,
2013-10-20 07:22:00,74.0,72.8,29.81,NW,322,0.0,0.0,96,0.00,,---,0.00,VWS V14.01,2013-10-20 11:22:00,
2013-10-20 07:27:00,73.9,72.7,29.81,NW,322,0.0,0.0,96,0.00,,---,0.00,VWS V14.01,2013-10-20 11:27:00,
2013-10-20 07:30:00,73.7,72.5,29.81,NW,322,0.0,0.0,96,0.00,,---,0.00,VWS V14.01,2013-10-20 11:30:00,
2013-10-20 07:32:00,73.9,72.7,29.82,NW,322,0.0,0.0,96,0.00,,---,0.00,VWS V14.01,2013-10-20 11:32:00,
2013-10-20 07:37:00,73.9,72.7,29.82,NW,322,0.0,0.0,96,0.00,,---,0.00,VWS V14.01,2013-10-20 11:37:00,
2013-10-20 07:40:00,74.0,72.8,29.81,NW,322,0.0,0.0,96,0.00,,---,0.00,VWS V14.01,2013-10-20 11:40:00,
2013-10-20 07:42:00,73.9,72.7,29.82,NW,322,0.0,0.0,96,0.00,,---,0.00,VWS V14.01,2013-10-20 11:42:00,
2013-10-20 07:47:00,73.9,72.7,29.82,NW,322,0.0,0.0,96,0.00,,---,0.00,VWS V14.01,2013-10-20 11:47:00,
2013-10-20 07:50:00,74.0,72.8,29.81,NW,322,0.0,0.0,96,0.00,,---,0.00,VWS V14.01,2013-10-20 11:50:00,
2013-10-20 07:52:00,73.9,72.7,29.82,NW,322,0.0,0.0,96,0.00,,---,0.00,VWS V14.01,2013-10-20 11:52:00,
2013-10-20 07:57:00,73.9,72.7,29.82,NW,322,0.0,0.0,96,0.00,,---,0.00,VWS V14.01,2013-10-20 11:57:00,
2013-10-20 08:00:00,74.0,72.8,29.81,NW,322,0.0,0.0,96,0.00,,---,0.00,VWS V14.01,2013-10-20 12:00:00,
2013-10-20 08:02:00,73.7,72.5,29.83,NW,322,0.0,0.0,96,0.00,,---,0.00,VWS V14.01,2013-10-20 12:02:00,
2013-10-20 08:07:00,73.7,72.5,29.83,NW,322,0.0,0.0,96,0.00,,---,0.00,VWS V14.01,2013-10-20 12:07:00,
2013-10-20 08:10:00,74.0,72.8,29.81,NW,322,0.0,0.0,96,0.00,,---,0.00,VWS V14.01,2013-10-20 12:10:00,
2013-10-20 08:12:00,73.7,72.5,29.83,NW,322,0.0,0.0,96,0.00,,---,0.00,VWS V14.01,2013-10-20 12:12:00,
2013-10-20 08:17:00,73.9,72.7,29.83,NW,322,0.0,0.0,96,0.00,,---,0.00,VWS V14.01,2013-10-20 12:17:00,
2013-10-20 08:20:00,74.0,72.8,29.81,NW,322,0.0,0.0,96,0.00,,---,0.00,VWS V14.01,2013-10-20 12:20:00,
2013-10-20 08:22:00,73.9,72.7,29.83,NW,322,0.0,0.0,96,0.00,,---,0.00,VWS V14.01,2013-10-20 12:22:00,
2013-10-20 08:27:00,73.9,72.7,29.83,NW,322,0.0,0.0,96,0.00,,---,0.00,VWS V14.01,2013-10-20 12:27:00,
2013-10-20 08:30:00,73.9,72.7,29.82,NW,322,0.0,0.0,96,0.00,,---,0.00,VWS V14.01,2013-10-20 12:30:00,
2013-10-20 08:32:00,74.0,72.8,29.83,NW,322,0.0,0.0,96,0.00,,---,0.00,VWS V14.01,2013-10-20 12:32:00,
2013-10-20 08:37:00,74.4,73.2,29.83,NW,322,0.0,0.0,96,0.00,,---,0.00,VWS V14.01,2013-10-20 12:37:00,
2013-10-20 08:40:00,73.9,72.7,29.82,NW,322,0.0,0.0,96,0.00,,---,0.00,VWS V14.01,2013-10-20 12:40:00,
2013-10-20 08:42:00,74.7,73.5,29.83,NW,322,0.0,0.0,96,0.00,,---,0.00,VWS V14.01,2013-10-20 12:42:00,
2013-10-20 08:47:00,75.1,73.9,29.83,NW,322,0.0,0.0,96,0.00,,---,0.00,VWS V14.01,2013-10-20 12:47:00,
2013-10-20 08:50:00,73.9,72.7,29.82,NW,322,0.0,0.0,96,0.00,,---,0.00,VWS V14.01,2013-10-20 12:50:00,
2013-10-20 08:52:00,75.4,74.2,29.83,NW,322,0.0,0.0,96,0.00,,---,0.00,VWS V14.01,2013-10-20 12:52:00,
2013-10-20 08:57:00,75.6,74.4,29.83,NW,322,0.0,0.0,96,0.00,,---,0.00,VWS V14.01,2013-10-20 12:57:00,
2013-10-20 09:00:00,73.9,72.7,29.83,NW,322,0.0,0.0,96,0.00,,---,0.00,VWS V14.01,2013-10-20 13:00:00,
2013-10-20 09:02:00,75.8,74.6,29.83,NW,322,0.0,0.0,96,0.00,,---,0.00,VWS V14.01,2013-10-20 13:02:00,
2013-10-20 09:07:00,76.1,74.9,29.83,NW,322,0.0,0.0,96,0.00,,---,0.00,VWS V14.01,2013-10-20 13:07:00,
2013-10-20 09:10:00,73.7,72.5,29.83,NW,322,0.0,0.0,96,0.00,,---,0.00,VWS V14.01,2013-10-20 13:10:00,
2013-10-20 09:12:00,76.3,75.1,29.83,NW,322,0.0,0.0,96,0.00,,---,0.00,VWS V14.01,2013-10-20 13:12:00,
2013-10-20 09:17:00,76.7,75.5,29.84,NW,323,0.0,0.0,96,0.00,,---,0.00,VWS V14.01,2013-10-20 13:17:00,
2013-10-20 09:20:00,73.9,72.7,29.83,NW,322,0.0,0.0,96,0.00,,---,0.00,VWS V14.01,2013-10-20 13:20:00,
2013-10-20 09:22:00,77.2,76.0,29.84,NW,322,0.0,0.0,96,0.00,,---,0.00,VWS V14.01,2013-10-20 13:22:00,
2013-10-20 09:27:00,77.4,76.2,29.84,NW,322,0.0,0.0,96,0.00,,---,0.00,VWS V14.01,2013-10-20 13:27:00,
2013-10-20 09:30:00,74.0,72.8,29.83,NW,322,0.0,0.0,96,0.00,,---,0.00,VWS V14.01,2013-10-20 13:30:00,
2013-10-20 09:32:00,77.7,76.5,29.84,NW,322,0.0,0.0,96,0.00,,---,0.00,VWS V14.01,2013-10-20 13:32:00,
2013-10-20 09:37:00,77.9,76.7,29.84,NW,322,0.0,0.0,96,0.00,,---,0.00,VWS V14.01,2013-10-20 13:37:00,
2013-10-20 09:40:00,74.6,73.4,29.83,NW,322,0.0,0.0,96,0.00,,---,0.00,VWS V14.01,2013-10-20 13:40:00,
2013-10-20 09:42:00,78.6,77.4,29.84,NW,323,0.0,0.0,96,0.00,,---,0.00,VWS V14.01,2013-10-20 13:42:00,
2013-10-20 09:47:00,79.6,78.4,29.84,North,357,0.0,0.0,96,0.00,,---,0.00,VWS V14.01,2013-10-20 13:47:00,
2013-10-20 09:50:00,75.3,74.1,29.83,NW,322,0.0,0.0,96,0.00,,---,0.00,VWS V14.01,2013-10-20 13:50:00,
2013-10-20 09:52:00,80.5,79.3,29.84,NW,323,0.0,0.0,96,0.00,,---,0.00,VWS V14.01,2013-10-20 13:52:00,
2013-10-20 09:57:00,81.4,80.2,29.84,NW,322,0.0,0.0,96,0.00,,---,0.00,VWS V14.01,2013-10-20 13:57:00,
2013-10-20 10:00:00,75.8,74.6,29.83,NW,322,0.0,0.0,96,0.00,,---,0.00,VWS V14.01,2013-10-20 14:00:00,
2013-10-20 10:02:00,81.6,80.3,29.84,NW,322,0.0,0.0,96,0.00,,---,0.00,VWS V14.01,2013-10-20 14:02:00,
2013-10-20 10:07:00,82.2,80.9,29.84,NW,322,0.0,0.0,96,0.00,,---,0.00,VWS V14.01,2013-10-20 14:07:00,
2013-10-20 10:10:00,76.1,74.9,29.83,NW,322,0.0,0.0,96,0.00,,---,0.00,VWS V14.01,2013-10-20 14:10:00,
2013-10-20 10:12:00,83.4,82.1,29.84,NW,322,0.0,0.0,96,0.00,,---,0.00,VWS V14.01,2013-10-20 14:12:00,
2013-10-20 10:17:00,84.0,82.7,29.84,NW,322,0.0,0.0,96,0.00,,---,0.00,VWS V14.01,2013-10-20 14:17:00,
2013-10-20 10:20:00,76.8,75.6,29.84,NNW,329,0.0,0.0,96,0.00,,---,0.00,VWS V14.01,2013-10-20 14:20:00,
2013-10-20 10:22:00,84.5,83.2,29.84,NW,305,0.0,0.0,96,0.00,,---,0.00,VWS V14.01,2013-10-20 14:22:00,
2013-10-20 10:27:00,84.5,83.2,29.84,NW,305,0.0,0.0,96,0.00,,---,0.00,VWS V14.01,2013-10-20 14:27:00,
2013-10-20 10:30:00,77.6,76.4,29.84,NW,322,0.0,0.0,96,0.00,,---,0.00,VWS V14.01,2013-10-20 14:30:00,
2013-10-20 10:32:00,84.3,83.0,29.85,NW,305,0.0,0.0,96,0.00,,---,0.00,VWS V14.01,2013-10-20 14:32:00,
2013-10-20 10:37:00,84.1,82.8,29.85,NW,306,0.0,0.0,96,0.00,,---,0.00,VWS V14.01,2013-10-20 14:37:00,
2013-10-20 10:40:00,78.3,77.1,29.84,NW,322,0.0,0.0,96,0.00,,---,0.00,VWS V14.01,2013-10-20 14:40:00,
2013-10-20 10:42:00,84.5,83.2,29.85,NW,306,0.0,0.0,96,0.00,,---,0.00,VWS V14.01,2013-10-20 14:42:00,
2013-10-20 10:47:00,84.9,83.6,29.85,WSW,244,0.0,0.0,96,0.00,,---,0.00,VWS V14.01,2013-10-20 14:47:00,
2013-10-20 10:50:00,79.9,78.7,29.84,NW,322,0.0,0.0,96,0.00,,---,0.00,VWS V14.01,2013-10-20 14:50:00,
2013-10-20 10:52:00,85.3,83.1,29.85,WSW,243,0.0,0.0,93,0.00,,---,0.00,VWS V14.01,2013-10-20 14:52:00,
2013-10-20 10:57:00,85.3,83.4,29.85,SSW,203,0.0,0.0,94,0.00,,---,0.00,VWS V14.01,2013-10-20 14:57:00,
2013-10-20 11:00:00,81.4,80.2,29.84,NW,322,0.0,0.0,96,0.00,,---,0.00,VWS V14.01,2013-10-20 15:00:00,
2013-10-20 11:02:00,84.9,83.0,29.85,SSW,205,0.0,0.0,94,0.00,,---,0.00,VWS V14.01,2013-10-20 15:02:00,
2013-10-20 11:07:00,85.1,83.5,29.85,SSW,203,0.0,0.0,95,0.00,,---,0.00,VWS V14.01,2013-10-20 15:07:00,
2013-10-20 11:10:00,82.8,81.6,29.84,NW,322,0.0,0.0,96,0.00,,---,0.00,VWS V14.01,2013-10-20 15:10:00,
2013-10-20 11:12:00,85.7,83.8,29.85,SSW,200,0.0,0.0,94,0.00,,---,0.00,VWS V14.01,2013-10-20 15:12:00,
2013-10-20 11:17:00,85.9,83.0,29.85,SSW,198,0.0,0.0,91,0.00,,---,0.00,VWS V14.01,2013-10-20 15:17:00,
2013-10-20 11:20:00,84.1,82.8,29.84,NW,322,0.0,0.0,96,0.00,,---,0.00,VWS V14.01,2013-10-20 15:20:00,
2013-10-20 11:22:00,85.7,82.8,29.85,SSW,199,0.0,0.0,91,0.00,,---,0.00,VWS V14.01,2013-10-20 15:22:00,
2013-10-20 11:27:00,85.3,83.1,29.85,SSW,199,0.0,0.0,93,0.00,,---,0.00,VWS V14.01,2013-10-20 15:27:00,
2013-10-20 11:30:00,84.5,83.2,29.85,NW,305,0.0,0.0,96,0.00,,---,0.00,VWS V14.01,2013-10-20 15:30:00,
2013-10-20 11:32:00,85.3,82.7,29.85,NW,304,0.0,0.0,92,0.00,,---,0.00,VWS V14.01,2013-10-20 15:32:00,
2013-10-20 11:37:00,85.3,82.7,29.85,WSW,251,0.0,0.0,92,0.00,,---,0.00,VWS V14.01,2013-10-20 15:37:00,
2013-10-20 11:40:00,84.1,82.8,29.85,NW,306,0.0,0.0,96,0.00,,---,0.00,VWS V14.01,2013-10-20 15:40:00,
2013-10-20 11:42:00,85.5,83.2,29.85,WSW,251,0.0,0.0,93,0.00,,---,0.00,VWS V14.01,2013-10-20 15:42:00,
2013-10-20 11:47:00,85.3,82.7,29.85,WSW,251,0.0,0.0,92,0.00,,---,0.00,VWS V14.01,2013-10-20 15:47:00,
2013-10-20 11:50:00,85.1,83.8,29.85,WSW,244,0.0,0.0,96,0.00,,---,0.00,VWS V14.01,2013-10-20 15:50:00,
2013-10-20 11:52:00,84.7,82.5,29.85,NW,325,0.0,0.0,93,0.00,,---,0.00,VWS V14.01,2013-10-20 15:52:00,
2013-10-20 11:57:00,84.9,82.7,29.85,WNW,296,0.0,0.0,93,0.00,,---,0.00,VWS V14.01,2013-10-20 15:57:00,
2013-10-20 12:00:00,85.1,82.8,29.85,SSW,203,0.0,0.0,93,0.00,,---,0.00,VWS V14.01,2013-10-20 16:00:00,
2013-10-20 12:02:00,85.1,82.8,29.85,WNW,298,0.0,0.0,93,0.00,,---,0.00,VWS V14.01,2013-10-20 16:02:00,
2013-10-20 12:07:00,85.1,82.8,29.85,WNW,284,3.0,6.0,93,0.00,,---,0.00,VWS V14.01,2013-10-20 16:07:00,
2013-10-20 12:10:00,85.5,84.2,29.85,SSW,202,0.0,0.0,96,0.00,,---,0.00,VWS V14.01,2013-10-20 16:10:00,
2013-10-20 12:12:00,84.9,83.6,29.85,WNW,302,0.0,0.0,96,0.00,,---,0.00,VWS V14.01,2013-10-20 16:12:00,
2013-10-20 12:17:00,84.5,82.3,29.85,WNW,302,0.0,0.0,93,0.00,,---,0.00,VWS V14.01,2013-10-20 16:17:00,
2013-10-20 12:20:00,85.7,83.4,29.85,SSW,198,0.0,0.0,93,0.00,,---,0.00,VWS V14.01,2013-10-20 16:20:00,
2013-10-20 12:22:00,84.5,81.9,29.85,WNW,302,0.0,0.0,92,0.00,,---,0.00,VWS V14.01,2013-10-20 16:22:00,
2013-10-20 12:27:00,85.5,84.2,29.85,ENE,78,0.0,5.0,96,0.00,,---,0.00,VWS V14.01,2013-10-20 16:27:00,
2013-10-20 12:30:00,85.5,83.2,29.85,NW,304,0.0,0.0,93,0.00,,---,0.00,VWS V14.01,2013-10-20 16:30:00,
2013-10-20 12:32:00,85.7,84.4,29.85,NW,313,0.0,6.0,96,0.00,,---,0.00,VWS V14.01,2013-10-20 16:32:00,
2013-10-20 12:36:00,85.9,83.6,29.85,NW,323,0.0,7.0,93,0.00,,---,0.00,VWS V14.01,2013-10-20 16:36:00,
2013-10-20 12:40:00,85.3,82.4,29.85,WSW,251,0.0,0.0,91,0.00,,---,0.00,VWS V14.01,2013-10-20 16:40:00,
2013-10-20 12:41:00,85.1,83.2,29.85,NW,323,0.0,0.0,94,0.00,,---,0.00,VWS V14.01,2013-10-20 16:41:00,
2013-10-20 12:46:00,85.3,83.4,29.84,NNW,328,0.0,6.0,94,0.00,,---,0.00,VWS V14.01,2013-10-20 16:46:00,
2013-10-20 12:50:00,85.1,82.8,29.85,NW,325,0.0,0.0,93,0.00,,---,0.00,VWS V14.01,2013-10-20 16:50:00,
2013-10-20 12:51:00,85.5,83.6,29.84,NW,323,0.0,0.0,94,0.00,,---,0.00,VWS V14.01,2013-10-20 16:51:00,
2013-10-20 12:56:00,85.9,84.3,29.84,NW,323,0.0,0.0,95,0.00,,---,0.00,VWS V14.01,2013-10-20 16:56:00,
2013-10-20 13:00:00,84.9,83.3,29.85,WNW,298,0.0,0.0,95,0.00,,---,0.00,VWS V14.01,2013-10-20 17:00:00,
2013-10-20 13:01:00,86.1,83.8,29.84,NNE,27,0.0,0.0,93,0.00,,---,0.00,VWS V14.01,2013-10-20 17:01:00,
2013-10-20 13:06:00,86.7,84.1,29.84,NNE,17,0.0,0.0,92,0.00,,---,0.00,VWS V14.01,2013-10-20 17:06:00,
2013-10-20 13:10:00,84.9,83.0,29.85,WNW,284,0.0,6.0,94,0.00,,---,0.00,VWS V14.01,2013-10-20 17:10:00,
2013-10-20 13:11:00,87.0,85.7,29.84,NW,312,0.0,0.0,96,0.00,,---,0.00,VWS V14.01,2013-10-20 17:11:00,
2013-10-20 13:16:00,87.0,83.4,29.83,NW,315,0.0,0.0,89,0.00,,---,0.00,VWS V14.01,2013-10-20 17:16:00,
2013-10-20 13:20:00,84.5,82.3,29.85,WNW,302,0.0,0.0,93,0.00,,---,0.00,VWS V14.01,2013-10-20 17:20:00,
2013-10-20 13:21:00,86.7,83.4,29.83,NW,315,0.0,0.0,90,0.00,,---,0.00,VWS V14.01,2013-10-20 17:21:00,
2013-10-20 13:26:00,86.5,82.5,29.83,NW,312,0.0,0.0,88,0.00,,---,0.00,VWS V14.01,2013-10-20 17:26:00,
2013-10-20 13:30:00,85.7,84.4,29.85,NW,319,4.0,7.0,96,0.00,,---,0.00,VWS V14.01,2013-10-20 17:30:00,
2013-10-20 13:31:00,87.0,83.0,29.83,NW,312,0.0,0.0,88,0.00,,---,0.00,VWS V14.01,2013-10-20 17:31:00,
2013-10-20 13:36:00,87.6,83.2,29.83,NW,316,0.0,6.0,87,0.00,,---,0.00,VWS V14.01,2013-10-20 17:36:00,
2013-10-20 13:40:00,85.3,83.4,29.85,NW,323,0.0,7.0,94,0.00,,---,0.00,VWS V14.01,2013-10-20 17:40:00,
2013-10-20 13:41:00,87.6,83.6,29.83,NW,319,0.0,0.0,88,0.00,,---,0.00,VWS V14.01,2013-10-20 17:41:00,
2013-10-20 13:46:00,87.0,83.0,29.82,NW,319,0.0,0.0,88,0.00,,---,0.00,VWS V14.01,2013-10-20 17:46:00,
2013-10-20 13:50:00,85.5,83.6,29.84,NW,323,0.0,6.0,94,0.00,,---,0.00,VWS V14.01,2013-10-20 17:50:00,
2013-10-20 13:51:00,87.0,82.3,29.82,NW,319,0.0,0.0,86,0.00,,---,0.00,VWS V14.01,2013-10-20 17:51:00,
2013-10-20 13:56:00,87.2,82.5,29.82,NW,319,0.0,0.0,86,0.00,,---,0.00,VWS V14.01,2013-10-20 17:56:00,
2013-10-20 14:00:00,86.1,83.5,29.84,NW,313,0.0,3.0,92,0.00,,---,0.00,VWS V14.01,2013-10-20 18:00:00,
2013-10-20 14:01:00,87.0,82.3,29.82,NW,318,0.0,0.0,86,0.00,,---,0.00,VWS V14.01,2013-10-20 18:01:00,
2013-10-20 14:06:00,86.7,82.4,29.82,NW,318,0.0,0.0,87,0.00,,---,0.00,VWS V14.01,2013-10-20 18:06:00,
2013-10-20 14:10:00,87.0,84.7,29.84,NW,312,0.0,0.0,93,0.00,,---,0.00,VWS V14.01,2013-10-20 18:10:00,
2013-10-20 14:11:00,86.5,81.5,29.82,NW,318,0.0,0.0,85,0.00,,---,0.00,VWS V14.01,2013-10-20 18:11:00,
2013-10-20 14:16:00,86.3,81.3,29.81,NW,318,0.0,0.0,85,0.00,,---,0.00,VWS V14.01,2013-10-20 18:16:00,
2013-10-20 14:20:00,86.7,83.8,29.83,NW,315,0.0,0.0,91,0.00,,---,0.00,VWS V14.01,2013-10-20 18:20:00,
2013-10-20 14:21:00,86.5,82.5,29.81,NW,318,0.0,0.0,88,0.00,,---,0.00,VWS V14.01,2013-10-20 18:21:00,
2013-10-20 14:26:00,86.7,82.7,29.81,NW,318,0.0,0.0,88,0.00,,---,0.00,VWS V14.01,2013-10-20 18:26:00,
2013-10-20 14:30:00,86.7,82.7,29.83,NW,312,0.0,0.0,88,0.00,,---,0.00,VWS V14.01,2013-10-20 18:30:00,
2013-10-20 14:31:00,86.7,81.7,29.81,NW,316,0.0,2.0,85,0.00,,---,0.00,VWS V14.01,2013-10-20 18:31:00,
2013-10-20 14:36:00,86.7,81.7,29.81,NW,316,0.0,2.0,85,0.00,,---,0.00,VWS V14.01,2013-10-20 18:36:00,
2013-10-20 14:40:00,87.6,84.3,29.83,NW,319,0.0,6.0,90,0.00,,---,0.00,VWS V14.01,2013-10-20 18:40:00,
2013-10-20 14:41:00,86.5,81.5,29.81,NW,316,0.0,0.0,85,0.00,,---,0.00,VWS V14.01,2013-10-20 18:41:00,
2013-10-20 14:46:00,86.5,81.5,29.80,NW,316,0.0,0.0,85,0.00,,---,0.00,VWS V14.01,2013-10-20 18:46:00,
2013-10-20 14:50:00,87.0,82.7,29.82,NW,319,0.0,0.0,87,0.00,,---,0.00,VWS V14.01,2013-10-20 18:50:00,
2013-10-20 14:51:00,86.3,80.9,29.80,NW,313,0.0,0.0,84,0.00,,---,0.00,VWS V14.01,2013-10-20 18:51:00,
2013-10-20 14:56:00,86.3,81.3,29.80,NW,313,0.0,0.0,85,0.00,,---,0.00,VWS V14.01,2013-10-20 18:56:00,
2013-10-20 15:00:00,87.2,83.2,29.82,NW,318,0.0,0.0,88,0.00,,---,0.00,VWS V14.01,2013-10-20 19:00:00,
2013-10-20 15:01:00,86.5,82.2,29.80,NNW,329,5.0,7.0,87,0.00,,---,0.00,VWS V14.01,2013-10-20 19:01:00,
2013-10-20 15:06:00,87.2,82.5,29.80,NW,319,5.0,8.0,86,0.00,,---,0.00,VWS V14.01,2013-10-20 19:06:00,
2013-10-20 15:10:00,86.5,81.8,29.82,NW,318,0.0,0.0,86,0.00,,---,0.00,VWS V14.01,2013-10-20 19:10:00,
2013-10-20 15:11:00,87.4,83.1,29.80,NW,325,0.0,6.0,87,0.00,,---,0.00,VWS V14.01,2013-10-20 19:11:00,
2013-10-20 15:16:00,87.0,81.9,29.80,NW,316,2.0,7.0,85,0.00,,---,0.00,VWS V14.01,2013-10-20 19:16:00,
2013-10-20 15:20:00,86.5,82.2,29.81,NW,318,0.0,0.0,87,0.00,,---,0.00,VWS V14.01,2013-10-20 19:20:00,
2013-10-20 15:21:00,86.1,81.1,29.80,NW,309,0.0,5.0,85,0.00,,---,0.00,VWS V14.01,2013-10-20 19:21:00,
2013-10-20 15:26:00,86.1,82.5,29.80,NW,318,0.0,6.0,89,0.00,,---,0.00,VWS V14.01,2013-10-20 19:26:00,
2013-10-20 15:30:00,86.7,82.7,29.81,NW,318,0.0,0.0,88,0.00,,---,0.00,VWS V14.01,2013-10-20 19:30:00,
2013-10-20 15:31:00,86.5,81.5,29.80,NW,318,0.0,5.0,85,0.00,,---,0.00,VWS V14.01,2013-10-20 19:31:00,
2013-10-20 15:36:00,86.5,80.7,29.80,NW,325,0.0,5.0,83,0.00,,---,0.00,VWS V14.01,2013-10-20 19:36:00,
2013-10-20 15:40:00,86.5,81.8,29.81,NW,316,0.0,2.0,86,0.00,,---,0.00,VWS V14.01,2013-10-20 19:40:00,
2013-10-20 15:41:00,86.3,80.9,29.80,NW,318,0.0,0.0,84,0.00,,---,0.00,VWS V14.01,2013-10-20 19:41:00,
2013-10-20 15:46:00,86.1,80.7,29.80,NW,325,0.0,3.0,84,0.00,,---,0.00,VWS V14.01,2013-10-20 19:46:00,
2013-10-20 15:50:00,86.3,80.5,29.80,NW,313,0.0,2.0,83,0.00,,---,0.00,VWS V14.01,2013-10-20 19:50:00,
2013-10-20 15:51:00,86.5,81.1,29.80,NW,320,0.0,7.0,84,0.00,,---,0.00,VWS V14.01,2013-10-20 19:51:00,
2013-10-20 15:56:00,86.7,82.0,29.80,NW,326,0.0,7.0,86,0.00,,---,0.00,VWS V14.01,2013-10-20 19:56:00,
2013-10-20 16:00:00,86.3,81.6,29.80,NW,304,0.0,5.0,86,0.00,,---,0.00,VWS V14.01,2013-10-20 20:00:00,
2013-10-20 16:01:00,87.4,82.3,29.79,WNW,294,0.0,0.0,85,0.00,,---,0.00,VWS V14.01,2013-10-20 20:01:00,
2013-10-20 16:06:00,88.2,82.0,29.79,NW,309,0.0,0.0,82,0.00,,---,0.00,VWS V14.01,2013-10-20 20:06:00,
2013-10-20 16:10:00,87.2,82.5,29.80,NW,319,0.0,8.0,86,0.00,,---,0.00,VWS V14.01,2013-10-20 20:10:00,
2013-10-20 16:11:00,88.2,81.2,29.79,NW,308,0.0,3.0,80,0.00,,---,0.00,VWS V14.01,2013-10-20 20:11:00,
2013-10-20 16:16:00,88.2,81.2,29.79,WNW,299,0.0,6.0,80,0.00,,---,0.00,VWS V14.01,2013-10-20 20:16:00,
2013-10-20 16:20:00,86.3,82.0,29.80,NW,319,2.0,7.0,87,0.00,,---,0.00,VWS V14.01,2013-10-20 20:20:00,
2013-10-20 16:21:00,88.2,80.9,29.79,NNW,333,0.0,2.0,79,0.00,,---,0.00,VWS V14.01,2013-10-20 20:21:00,
2013-10-20 16:26:00,88.0,80.7,29.79,WNW,296,0.0,6.0,79,0.00,,---,0.00,VWS V14.01,2013-10-20 20:26:00,
2013-10-20 16:30:00,86.5,82.5,29.80,NW,319,5.0,6.0,88,0.00,,---,0.00,VWS V14.01,2013-10-20 20:30:00,
2013-10-20 16:31:00,87.6,80.7,29.80,WNW,302,0.0,1.0,80,0.00,,---,0.00,VWS V14.01,2013-10-20 20:31:00,
2013-10-20 16:36:00,87.4,80.1,29.80,NW,315,0.0,5.0,79,0.00,,---,0.00,VWS V14.01,2013-10-20 20:36:00,
2013-10-20 16:40:00,86.3,80.5,29.80,NW,319,0.0,5.0,83,0.00,,---,0.00,VWS V14.01,2013-10-20 20:40:00,
2013-10-20 16:41:00,87.4,80.1,29.80,NW,306,0.0,4.0,79,0.00,,---,0.00,VWS V14.01,2013-10-20 20:41:00,
2013-10-20 16:46:00,87.4,81.2,29.80,NW,318,1.0,7.0,82,0.00,,---,0.00,VWS V14.01,2013-10-20 20:46:00,
2013-10-20 16:50:00,86.5,81.8,29.80,NW,322,0.0,3.0,86,0.00,,---,0.00,VWS V14.01,2013-10-20 20:50:00,
2013-10-20 16:51:00,87.4,81.2,29.80,NW,306,1.0,7.0,82,0.00,,---,0.00,VWS V14.01,2013-10-20 20:51:00,
2013-10-20 16:56:00,86.7,80.6,29.80,NW,309,0.0,7.0,82,0.00,,---,0.00,VWS V14.01,2013-10-20 20:56:00,
2013-10-20 17:00:00,87.2,81.4,29.79,WNW,294,0.0,7.0,83,0.00,,---,0.00,VWS V14.01,2013-10-20 21:00:00,
2013-10-20 17:01:00,86.5,80.3,29.80,WNW,302,2.0,5.0,82,0.00,,---,0.00,VWS V14.01,2013-10-20 21:01:00,
2013-10-20 17:06:00,86.5,80.7,29.80,NW,322,3.0,7.0,83,0.00,,---,0.00,VWS V14.01,2013-10-20 21:06:00,
2013-10-20 17:10:00,86.1,80.3,29.80,NW,316,0.0,0.0,83,0.00,,---,0.00,VWS V14.01,2013-10-20 21:10:00,
2013-10-20 17:15:00,86.5,80.3,29.80,NW,318,0.0,0.0,82,0.00,,---,0.00,VWS V14.01,2013-10-20 21:15:00,
2013-10-20 17:20:00,86.7,79.8,29.80,NW,316,0.0,7.0,80,0.00,,---,0.00,VWS V14.01,2013-10-20 21:20:00,
2013-10-20 17:25:00,86.5,80.3,29.80,NW,311,0.0,7.0,82,0.00,,---,0.00,VWS V14.01,2013-10-20 21:25:00,
2013-10-20 17:30:00,86.3,79.0,29.80,NW,304,0.0,0.0,79,0.00,,---,0.00,VWS V14.01,2013-10-20 21:30:00,
2013-10-20 17:35:00,86.3,79.4,29.80,NW,325,3.0,3.0,80,0.00,,---,0.00,VWS V14.01,2013-10-20 21:35:00,
2013-10-20 17:40:00,86.3,79.4,29.80,NW,312,0.0,1.0,80,0.00,,---,0.00,VWS V14.01,2013-10-20 21:40:00,
2013-10-20 17:45:00,86.1,79.2,29.80,NNW,329,3.0,5.0,80,0.00,,---,0.00,VWS V14.01,2013-10-20 21:45:00,
2013-10-20 17:50:00,85.9,79.8,29.80,NW,315,0.0,0.0,82,0.00,,---,0.00,VWS V14.01,2013-10-20 21:50:00,
2013-10-20 17:55:00,85.7,79.2,29.80,NW,319,0.0,6.0,81,0.00,,---,0.00,VWS V14.01,2013-10-20 21:55:00,
2013-10-20 18:00:00,85.5,79.0,29.80,NW,319,0.0,0.0,81,0.00,,---,0.00,VWS V14.01,2013-10-20 22:00:00,
2013-10-20 18:05:00,85.1,79.4,29.80,WNW,296,3.0,6.0,83,0.00,,---,0.00,VWS V14.01,2013-10-20 22:05:00,
2013-10-20 18:10:00,84.7,79.0,29.80,NW,306,0.0,0.0,83,0.00,,---,0.00,VWS V14.01,2013-10-20 22:10:00,
2013-10-20 18:15:00,84.3,79.7,29.81,NW,320,0.0,3.0,86,0.00,,---,0.00,VWS V14.01,2013-10-20 22:15:00,
2013-10-20 18:20:00,83.8,79.5,29.81,NNW,329,0.0,3.0,87,0.00,,---,0.00,VWS V14.01,2013-10-20 22:20:00,
2013-10-20 18:25:00,83.4,79.1,29.81,NNW,328,0.0,5.0,87,0.00,,---,0.00,VWS V14.01,2013-10-20 22:25:00,
2013-10-20 18:30:00,83.4,79.8,29.81,NW,316,0.0,0.0,89,0.00,,---,0.00,VWS V14.01,2013-10-20 22:30:00,
2013-10-20 18:35:00,83.0,80.1,29.81,NW,323,0.0,0.0,91,0.00,,---,0.00,VWS V14.01,2013-10-20 22:35:00,
2013-10-20 18:40:00,82.4,79.2,29.81,NW,322,0.0,0.0,90,0.00,,---,0.00,VWS V14.01,2013-10-20 22:40:00,
2013-10-20 18:45:00,82.0,79.1,29.81,NNW,336,0.0,0.0,91,0.00,,---,0.00,VWS V14.01,2013-10-20 22:45:00,
2013-10-20 18:50:00,81.8,79.6,29.81,North,352,0.0,0.0,93,0.00,,---,0.00,VWS V14.01,2013-10-20 22:50:00,
2013-10-20 18:55:00,81.4,79.5,29.81,NNW,335,0.0,0.0,94,0.00,,---,0.00,VWS V14.01,2013-10-20 22:55:00,
2013-10-20 19:00:00,81.1,79.5,29.81,NNW,330,0.0,0.0,95,0.00,,---,0.00,VWS V14.01,2013-10-20 23:00:00,
2013-10-20 19:05:00,80.7,79.5,29.81,NNW,330,0.0,0.0,96,0.00,,---,0.00,VWS V14.01,2013-10-20 23:05:00,
2013-10-20 19:10:00,80.5,79.3,29.81,NNW,347,0.0,0.0,96,0.00,,---,0.00,VWS V14.01,2013-10-20 23:10:00,
2013-10-20 19:15:00,80.3,79.1,29.81,NW,326,0.0,0.0,96,0.00,,---,0.00,VWS V14.01,2013-10-20 23:15:00,
2013-10-20 19:20:00,79.9,78.7,29.81,NW,323,0.0,0.0,96,0.00,,---,0.00,VWS V14.01,2013-10-20 23:20:00,
2013-10-20 19:25:00,79.8,78.6,29.81,NW,323,0.0,0.0,96,0.00,,---,0.00,VWS V14.01,2013-10-20 23:25:00,
2013-10-20 19:30:00,79.6,78.4,29.82,NW,323,0.0,0.0,96,0.00,,---,0.00,VWS V14.01,2013-10-20 23:30:00,
2013-10-20 19:35:00,79.4,78.2,29.82,NW,323,0.0,0.0,96,0.00,,---,0.00,VWS V14.01,2013-10-20 23:35:00,
2013-10-20 19:40:00,79.2,78.0,29.82,NW,326,0.0,0.0,96,0.00,,---,0.00,VWS V14.01,2013-10-20 23:40:00,
2013-10-20 19:45:00,79.2,78.0,29.82,NW,323,0.0,0.0,96,0.00,,---,0.00,VWS V14.01,2013-10-20 23:45:00,
2013-10-20 19:50:00,79.0,77.8,29.82,NW,325,0.0,0.0,96,0.00,,---,0.00,VWS V14.01,2013-10-20 23:50:00,
2013-10-20 19:55:00,78.8,77.6,29.82,NW,322,0.0,0.0,96,0.00,,---,0.00,VWS V14.01,2013-10-20 23:55:00,
2013-10-20 20:00:00,78.6,77.4,29.83,NW,323,0.0,0.0,96,0.00,,---,0.00,VWS V14.01,2013-10-21 00:00:00,
2013-10-20 20:05:00,78.5,77.3,29.83,NW,322,0.0,0.0,96,0.00,,---,0.00,VWS V14.01,2013-10-21 00:05:00,
2013-10-20 20:10:00,78.5,77.3,29.83,NW,323,0.0,0.0,96,0.00,,---,0.00,VWS V14.01,2013-10-21 00:10:00,
2013-10-20 20:15:00,78.3,77.1,29.83,NW,323,0.0,0.0,96,0.00,,---,0.00,VWS V14.01,2013-10-21 00:15:00,
2013-10-20 20:20:00,78.3,77.1,29.83,NW,322,0.0,0.0,96,0.00,,---,0.00,VWS V14.01,2013-10-21 00:20:00,
2013-10-20 20:25:00,78.1,76.9,29.83,NW,325,0.0,0.0,96,0.00,,---,0.00,VWS V14.01,2013-10-21 00:25:00,
2013-10-20 20:30:00,78.1,76.9,29.83,NW,322,0.0,0.0,96,0.00,,---,0.00,VWS V14.01,2013-10-21 00:30:00,
2013-10-20 20:35:00,78.1,76.9,29.83,NW,322,0.0,0.0,96,0.00,,---,0.00,VWS V14.01,2013-10-21 00:35:00,
2013-10-20 20:40:00,78.1,76.9,29.83,NW,325,0.0,0.0,96,0.00,,---,0.00,VWS V14.01,2013-10-21 00:40:00,
2013-10-20 20:45:00,78.1,76.9,29.84,NW,322,0.0,0.0,96,0.00,,---,0.00,VWS V14.01,2013-10-21 00:45:00,
2013-10-20 20:50:00,77.9,76.7,29.84,NW,323,0.0,0.0,96,0.00,,---,0.00,VWS V14.01,2013-10-21 00:50:00,
2013-10-20 20:55:00,77.9,76.7,29.84,NW,322,0.0,0.0,96,0.00,,---,0.00,VWS V14.01,2013-10-21 00:55:00,
2013-10-20 21:00:00,78.6,77.4,29.83,NW,322,0.0,0.0,96,0.00,,---,0.00,VWS V14.01,2013-10-21 01:00:00,
2013-10-20 21:01:00,77.9,76.7,29.84,NW,322,0.0,0.0,96,0.00,,---,0.00,VWS V14.01,2013-10-21 01:01:00,
2013-10-20 21:06:00,77.9,76.7,29.84,NW,322,0.0,0.0,96,0.00,,---,0.00,VWS V14.01,2013-10-21 01:06:00,
2013-10-20 21:10:00,78.5,77.3,29.83,NW,322,0.0,0.0,96,0.00,,---,0.00,VWS V14.01,2013-10-21 01:10:00,
2013-10-20 21:11:00,77.9,76.7,29.84,NW,322,0.0,0.0,96,0.00,,---,0.00,VWS V14.01,2013-10-21 01:11:00,
2013-10-20 21:16:00,77.9,76.7,29.85,NW,322,0.0,0.0,96,0.00,,---,0.00,VWS V14.01,2013-10-21 01:16:00,
2013-10-20 21:20:00,78.3,77.1,29.83,NW,322,0.0,0.0,96,0.00,,---,0.00,VWS V14.01,2013-10-21 01:20:00,
2013-10-20 21:21:00,77.9,76.7,29.85,NW,322,0.0,0.0,96,0.00,,---,0.00,VWS V14.01,2013-10-21 01:21:00,
2013-10-20 21:26:00,77.9,76.7,29.85,NW,322,0.0,0.0,96,0.00,,---,0.00,VWS V14.01,2013-10-21 01:26:00,
2013-10-20 21:30:00,78.1,76.9,29.83,NW,323,0.0,0.0,96,0.00,,---,0.00,VWS V14.01,2013-10-21 01:30:00,
2013-10-20 21:31:00,77.9,76.7,29.85,NW,322,0.0,0.0,96,0.00,,---,0.00,VWS V14.01,2013-10-21 01:31:00,
2013-10-20 21:36:00,77.9,76.7,29.85,NW,322,0.0,0.0,96,0.00,,---,0.00,VWS V14.01,2013-10-21 01:36:00,
2013-10-20 21:40:00,78.1,76.9,29.83,NW,322,0.0,0.0,96,0.00,,---,0.00,VWS V14.01,2013-10-21 01:40:00,
2013-10-20 21:41:00,77.9,76.7,29.85,NW,322,0.0,0.0,96,0.00,,---,0.00,VWS V14.01,2013-10-21 01:41:00,
2013-10-20 21:46:00,77.9,76.7,29.85,NW,322,0.0,0.0,96,0.00,,---,0.00,VWS V14.01,2013-10-21 01:46:00,
2013-10-20 21:50:00,77.9,76.7,29.84,NW,322,0.0,0.0,96,0.00,,---,0.00,VWS V14.01,2013-10-21 01:50:00,
2013-10-20 21:51:00,77.9,76.7,29.85,NW,322,0.0,0.0,96,0.00,,---,0.00,VWS V14.01,2013-10-21 01:51:00,
2013-10-20 21:56:00,77.9,76.7,29.85,NW,322,0.0,0.0,96,0.00,,---,0.00,VWS V14.01,2013-10-21 01:56:00,
2013-10-20 22:00:00,77.9,76.7,29.84,NW,325,0.0,0.0,96,0.00,,---,0.00,VWS V14.01,2013-10-21 02:00:00,
2013-10-20 22:01:00,77.9,76.7,29.85,NW,322,0.0,0.0,96,0.00,,---,0.00,VWS V14.01,2013-10-21 02:01:00,
2013-10-20 22:06:00,77.9,76.7,29.85,NW,322,0.0,0.0,96,0.00,,---,0.00,VWS V14.01,2013-10-21 02:06:00,
2013-10-20 22:10:00,77.9,76.7,29.84,NW,322,0.0,0.0,96,0.00,,---,0.00,VWS V14.01,2013-10-21 02:10:00,
2013-10-20 22:11:00,77.9,76.7,29.85,NW,322,0.0,0.0,96,0.00,,---,0.00,VWS V14.01,2013-10-21 02:11:00,
2013-10-20 22:16:00,77.9,76.7,29.86,NW,322,0.0,0.0,96,0.00,,---,0.00,VWS V14.01,2013-10-21 02:16:00,
2013-10-20 22:20:00,77.9,76.7,29.85,NW,322,0.0,0.0,96,0.00,,---,0.00,VWS V14.01,2013-10-21 02:20:00,
2013-10-20 22:21:00,77.9,76.7,29.86,NW,322,0.0,0.0,96,0.00,,---,0.00,VWS V14.01,2013-10-21 02:21:00,
2013-10-20 22:26:00,77.9,76.7,29.86,NW,322,0.0,0.0,96,0.00,,---,0.00,VWS V14.01,2013-10-21 02:26:00,
2013-10-20 22:30:00,77.9,76.7,29.85,NW,322,0.0,0.0,96,0.00,,---,0.00,VWS V14.01,2013-10-21 02:30:00,
2013-10-20 22:31:00,77.9,76.7,29.86,NW,322,0.0,0.0,96,0.00,,---,0.00,VWS V14.01,2013-10-21 02:31:00,
2013-10-20 22:36:00,77.9,76.7,29.86,NW,322,0.0,0.0,96,0.00,,---,0.00,VWS V14.01,2013-10-21 02:36:00,
2013-10-20 22:40:00,77.9,76.7,29.85,NW,322,0.0,0.0,96,0.00,,---,0.00,VWS V14.01,2013-10-21 02:40:00,
2013-10-20 22:41:00,77.9,76.7,29.86,NW,322,0.0,0.0,96,0.00,,---,0.00,VWS V14.01,2013-10-21 02:41:00,
2013-10-20 22:46:00,77.9,76.7,29.86,NW,322,0.0,0.0,96,0.00,,---,0.00,VWS V14.01,2013-10-21 02:46:00,
2013-10-20 22:50:00,77.9,76.7,29.85,NW,322,0.0,0.0,96,0.00,,---,0.00,VWS V14.01,2013-10-21 02:50:00,
2013-10-20 22:51:00,77.9,76.7,29.86,NW,322,0.0,0.0,96,0.00,,---,0.00,VWS V14.01,2013-10-21 02:51:00,
2013-10-20 22:56:00,77.9,76.7,29.86,NW,322,0.0,0.0,96,0.00,,---,0.00,VWS V14.01,2013-10-21 02:56:00,
2013-10-20 23:00:00,77.9,76.7,29.85,NW,322,0.0,0.0,96,0.00,,---,0.00,VWS V14.01,2013-10-21 03:00:00,
2013-10-20 23:01:00,77.9,76.7,29.86,NW,322,0.0,0.0,96,0.00,,---,0.00,VWS V14.01,2013-10-21 03:01:00,
2013-10-20 23:06:00,77.9,76.7,29.86,NW,322,0.0,0.0,96,0.00,,---,0.00,VWS V14.01,2013-10-21 03:06:00,
2013-10-20 23:10:00,77.9,76.7,29.85,NW,322,0.0,0.0,96,0.00,,---,0.00,VWS V14.01,2013-10-21 03:10:00,
2013-10-20 23:11:00,77.9,76.7,29.86,NW,322,0.0,0.0,96,0.00,,---,0.00,VWS V14.01,2013-10-21 03:11:00,
2013-10-20 23:16:00,77.9,76.7,29.86,NW,322,0.0,0.0,96,0.00,,---,0.00,VWS V14.01,2013-10-21 03:16:00,
2013-10-20 23:20:00,77.9,76.7,29.86,NW,322,0.0,0.0,96,0.00,,---,0.00,VWS V14.01,2013-10-21 03:20:00,
2013-10-20 23:21:00,77.9,76.7,29.86,NW,322,0.0,0.0,96,0.00,,---,0.00,VWS V14.01,2013-10-21 03:21:00,
2013-10-20 23:26:00,77.9,76.7,29.86,NW,322,0.0,0.0,96,0.00,,---,0.00,VWS V14.01,2013-10-21 03:26:00,
2013-10-20 23:30:00,77.9,76.7,29.86,NW,322,0.0,0.0,96,0.00,,---,0.00,VWS V14.01,2013-10-21 03:30:00,
2013-10-20 23:31:00,77.9,76.7,29.86,NW,322,0.0,0.0,96,0.00,,---,0.00,VWS V14.01,2013-10-21 03:31:00,
2013-10-20 23:36:00,77.9,76.7,29.86,NW,322,0.0,0.0,96,0.00,,---,0.00,VWS V14.01,2013-10-21 03:36:00,
2013-10-20 23:40:00,77.9,76.7,29.86,NW,322,0.0,0.0,96,0.00,,---,0.00,VWS V14.01,2013-10-21 03:40:00,
2013-10-20 23:41:00,77.9,76.7,29.86,NW,322,0.0,0.0,96,0.00,,---,0.00,VWS V14.01,2013-10-21 03:41:00,
2013-10-20 23:46:00,77.9,76.7,29.87,NW,322,0.0,0.0,96,0.00,,---,0.00,VWS V14.01,2013-10-21 03:46:00,
2013-10-20 23:50:00,77.9,76.7,29.86,NW,322,0.0,0.0,96,0.00,,---,0.00,VWS V14.01,2013-10-21 03:50:00,
2013-10-20 23:51:00,77.9,76.7,29.87,NW,322,0.0,0.0,96,0.00,,---,0.00,VWS V14.01,2013-10-21 03:51:00,
2013-10-20 23:56:00,77.9,76.7,29.87,NW,322,0.0,0.0,96,0.00,,---,0.00,VWS V14.01,2013-10-21 03:56:00,